Weather History for Dodge City, KS

Change the Weather History Date:

Wednesday, November 16, 2011

  Actual Average Record
Temperature  
Mean Temperature 31 °F -  
Max Temperature 39 °F 55 °F 79 °F (1963)
Min Temperature 21 °F 30 °F 2 °F (1955)
Degree Days  
Heating Degree Days 34    
Moisture  
Dew Point 22 °F    
Average Humidity 64    
Maximum Humidity 89    
Minimum Humidity 44    
Precipitation  
Precipitation 0.00 in - - ()
Sea Level Pressure  
Sea Level Pressure 30.28 in    
Wind  
Wind Speed 11 mph (NNE)    
Max Wind Speed 18 mph    
Max Gust Speed 24 mph    
Visibility 10 miles    
Events      
Averages and records for this station are not official NWS values.
T = Trace of Precipitation, MM = Missing Value Source: NWS Daily Summary

Daily Weather History Graph

Daily Weather History Graph

Search for Another Location

Airport:

Trip Planner

Search our weather history database for the weather conditions in past years. The results will help you decide how hot, cold, wet, or windy it might be!

Date:

Astronomy

Nov. 16, 2011 Rise Set
Actual Time 7:20 AM CST 5:27 PM CST
Civil Twilight 6:52 AM CST 5:56 PM CST
Nautical Twilight 6:21 AM CST 6:27 PM CST
Astronomical Twilight 5:49 AM CST 6:58 PM CST
Moon 10:42 PM CST (11/16) 11:58 AM CST (11/16)
Length of Visible Light 11h 03m
Length of Day
10h 07m
Waning Gibbous, 70% of the Moon is Illuminated
Nov 16
Waning Gibbous
Nov 18
Last Quarter
Nov 25
New
Dec 2
First Quarter
Dec 10
Full

Hourly Weather History & Observations

Time (CST) Temp. Windchill Dew Point Humidity Pressure Visibility Wind Dir Wind Speed Gust Speed Precip Events Conditions
12:52 AM 36.0 °F 28.5 °F 24.1 °F 62% 30.00 in 10.0 mi ENE 10.4 mph - N/A   Clear
1:52 AM 34.0 °F 27.2 °F 23.0 °F 64% 30.00 in 10.0 mi NE 8.1 mph - N/A   Clear
2:52 AM 30.9 °F 22.8 °F 24.1 °F 76% 30.03 in 10.0 mi NNE 9.2 mph - N/A   Clear
3:52 AM 32.0 °F 22.1 °F 24.1 °F 73% 30.04 in 10.0 mi NNE 13.8 mph - N/A   Mostly Cloudy
4:52 AM 32.0 °F 21.2 °F 21.9 °F 66% 30.06 in 10.0 mi NNE 16.1 mph - N/A   Overcast
5:52 AM 32.0 °F 21.6 °F 19.9 °F 61% 30.12 in 10.0 mi NE 15.0 mph - N/A   Overcast
6:52 AM 30.9 °F 21.2 °F 19.0 °F 61% 30.17 in 10.0 mi NNE 12.7 mph - N/A   Overcast
7:52 AM 32.0 °F 22.1 °F 17.1 °F 54% 30.21 in 10.0 mi NNE 13.8 mph - N/A   Overcast
8:52 AM 33.1 °F 23.0 °F 16.0 °F 50% 30.25 in 10.0 mi NNE 15.0 mph - N/A   Overcast
9:52 AM 35.1 °F 24.5 °F 15.1 °F 44% 30.27 in 10.0 mi NE 18.4 mph - N/A   Overcast
10:52 AM 34.0 °F 23.4 °F 19.9 °F 56% 30.30 in 10.0 mi NNE 17.3 mph - N/A   Partly Cloudy
11:52 AM 37.9 °F 28.5 °F 19.9 °F 48% 30.32 in 10.0 mi NE 17.3 mph - N/A   Scattered Clouds
12:40 PM 37.4 °F 28.2 °F 23.0 °F 56% 30.28 in 10.0 mi NNE 16.1 mph 24.2 mph N/A   Overcast
12:52 PM 37.0 °F 27.4 °F 23.0 °F 57% 30.32 in 10.0 mi North 17.3 mph - N/A   Overcast
1:52 PM 37.9 °F 31.5 °F 23.0 °F 55% 30.33 in 10.0 mi NE 9.2 mph 23.0 mph N/A   Mostly Cloudy
2:21 PM 39.2 °F 33.0 °F 23.0 °F 52% 30.29 in 10.0 mi NNE 9.2 mph 17.3 mph N/A   Scattered Clouds
2:31 PM 39.2 °F 30.5 °F 23.0 °F 52% 30.29 in 10.0 mi NNE 16.1 mph - N/A   Mostly Cloudy
2:52 PM 39.0 °F 30.3 °F 23.0 °F 53% 30.34 in 10.0 mi NNE 16.1 mph - N/A   Mostly Cloudy
3:37 PM 37.4 °F 31.4 °F 23.0 °F 56% 30.30 in 10.0 mi North 8.1 mph - N/A   Partly Cloudy
3:52 PM 39.0 °F 33.4 °F 23.0 °F 53% 30.35 in 10.0 mi NNE 8.1 mph - N/A   Scattered Clouds
4:52 PM 37.0 °F 31.6 °F 23.0 °F 57% 30.36 in 10.0 mi North 6.9 mph - N/A   Partly Cloudy
5:52 PM 30.9 °F 24.3 °F 24.1 °F 76% 30.40 in 10.0 mi NE 6.9 mph - N/A   Clear
6:52 PM 27.0 °F 20.5 °F 21.0 °F 78% 30.43 in 10.0 mi NE 5.8 mph - N/A   Clear
7:52 PM 28.0 °F - 24.1 °F 85% 30.43 in 10.0 mi Calm Calm - N/A   Clear
8:52 PM 25.0 °F - 21.9 °F 88% 30.45 in 10.0 mi Calm Calm - N/A   Clear
9:52 PM 23.0 °F 15.8 °F 19.9 °F 88% 30.46 in 10.0 mi SSW 5.8 mph - N/A   Clear
10:52 PM 24.1 °F 16.0 °F 21.0 °F 88% 30.48 in 10.0 mi SW 6.9 mph - N/A   Clear
11:52 PM 21.9 °F 14.5 °F 19.0 °F 89% 30.47 in 10.0 mi SSW 5.8 mph - N/A   Clear